Regional Weather Roundup
Issued by NWS State College, PA

Home | Current Version | Previous Version | Text Only | Print | Product List | Glossary On
Versions: 1 2 3 4 5 6 7 8 9 10 11 12 13 14 15 16 17 18 19 20 21 22 23 24 25 26 27 28 29 30 31 32 33 34 35 36 37 38 39 40 41 42 43 44 45 46 47 48 49 50
000
ASUS41 KCTP 211010
RWRCTP

REGIONAL WEATHER ROUNDUP
NATIONAL WEATHER SERVICE STATE COLLEGE PA
600 AM EDT MON APR 21 2014

Note: "fair" indicates few or no clouds below 12,000 feet with no
significant weather and/or obstructions to visibility.

* = STATION THAT DOES NOT REPORT PRECIPITATION /E.G. RAIN...SNOW...ETC/
    THUNDER OR FOG.

PAZ002>004-007>009-013>016-020>023-029>032-211100-
WESTERN PENNSYLVANIA

CITY           SKY/WX    TMP DP  RH WIND       PRES   REMARKS
ERIE           CLEAR     54  29  38 S14       30.06F
MEADVILLE      NOT AVBL
FRANKLIN*      CLEAR     43  27  52 SE6       30.13S
NEW CASTLE     FAIR      45  30  55 CALM      30.11F
BEAVER COUNTY  NOT AVBL
BUTLER*        CLEAR     43  28  56 E5        30.12F
PITTSBURGH INT PTCLDY    47  30  51 CALM      30.10S
PITTSBURGH     CLEAR     49  29  46 SE5       30.10F
INDIANA*       CLEAR     41  32  70 CALM      30.13F
LATROBE        CLEAR     43  32  65 CALM      30.12F
WASHINGTON CO* CLEAR     39  30  70 CALM      30.12S
$$

PAZ004>006-010>012-017>019-024>028-033>037-041-042-045-046-049>053-211100-
CENTRAL PENNSYLVANIA

CITY           SKY/WX    TMP DP  RH WIND       PRES   REMARKS
BRADFORD       PTCLDY    42  30  62 SE5       30.13F
DUBOIS         PTCLDY    43  32  65 E7        30.12F
CLEARFIELD     PTCLDY    37  31  78 N3        30.16S
JOHNSTOWN      CLEAR     42  30  62 S6        30.14S
ALTOONA        PTCLDY    40  34  79 S6        30.17F
STATE COLLEGE  CLEAR     43  30  61 CALM      30.18S
WILLIAMSPORT   CLEAR     40  30  67 VRB3      30.20S
SELINSGROVE    CLEAR     37  32  82 CALM      30.22R
FT INDIANTOWN  NOT AVBL
CAPITAL CITY   CLEAR     36  30  79 S3        30.23S
HARRISBURG     PTCLDY    38  30  73 CALM      30.22S
YORK           CLEAR     31  29  92 CALM      30.22S
$$

PAZ038>040-043-044-047-048-054-055-060>062-067>071-211100-
EASTERN PENNSYLVANIA

CITY           SKY/WX    TMP DP  RH WIND       PRES   REMARKS
SCRANTON       CLEAR     38  22  52 S6        30.19F
MOUNT POCONO   CLEAR     29  24  82 CALM      30.17F
ALLENTOWN      CLEAR     33  27  78 CALM      30.23S
QUAKERTOWN*    CLEAR     28  28 100 CALM      30.23S
READING        CLEAR     36  29  75 CALM      30.22F
LANCASTER      CLEAR     34  27  75 CALM      30.22S
COATESVILLE    NOT AVBL
POTTSTOWN      CLEAR     32  27  81 CALM      30.24F
BLUE BELL      CLEAR     34  30  86 CALM      30.23S
DOYLESTOWN     CLEAR     32  27  81 CALM      30.22F
WILLOW GROVE   NOT AVBL
NORTH PHILA    CLEAR     37  24  59 CALM      30.25S
PHILADELPHIA   PTCLDY    40  26  57 NE7       30.24F
$$



USA.gov is the U.S. government's official web portal to all federal, state and local government web resources and services.